This demonstration page uses our WeatherBlox Daily Observations layout. Learn more.

Left ArrowRight Arrow

39.92423, -83.80882

Hourly Observations for May 27, 2020

Temp ( °F °C ) Dew Point ( °F °C ) Humidity (%) Winds ( mph kmh ) Pressure ( in mb ) Visibility ( mi km ) Precip ( " mm )
12:56 am 00:56 Clear 69 20.6 67 19.4 93 93 ESE 5 7 30.02 1017 10 16.0934 0 0
1:56 am 01:56 Clear 71 21.7 66 18.9 84 84 SE 8 13 30.02 1017 10 16.0934 0 0
2:56 am 02:56 Clear 70 21.1 66 18.9 87 87 SE 7 11 30.01 1016 10 16.0934 0 0
3:56 am 03:56 Mostly Cloudy 70 21.1 67 19.4 90 90 SE 7 11 30 1016 10 16.0934 0 0
4:56 am 04:56 Clear 70 21.1 66 18.9 87 87 SSE 9 15 30 1016 10 16.0934 0 0
5:56 am 05:56 Mostly Cloudy 70 21.1 66 18.9 87 87 S 9 15 30.01 1016 10 16.0934 0 0
6:56 am 06:56 Cloudy 69 20.6 68 20 96 96 SE 6 9 30.02 1017 10 16.0934 0 0
7:56 am 07:56 Cloudy 70 21.1 68 20 93 93 SE 3 6 30.04 1017 10 16.0934 0 0
8:56 am 08:56 Sunny 70 21.1 69 20.6 97 97 SE 3 6 30.04 1017 10 16.0934 0 0
9:56 am 09:56 Mostly Sunny 72 22.2 68 20 87 87 S 6 9 30.04 1017 10 16.0934 0 0
10:56 am 10:56 Mostly Sunny 75 23.9 68 20 79 79 SSE 9 15 30.04 1017 10 16.0934 0 0
11:56 am 11:56 Mostly Sunny 78 25.6 67 19.4 69 69 VRB 5 7 30.02 1017 10 16.0934 0 0
12:56 pm 12:56 Partly Cloudy 80 26.7 67 19.4 64 64 SSE 9 15 30.01 1016 10 16.0934 0 0
1:56 pm 13:56 Mostly Cloudy 81 27.2 65 18.3 58 58 S 6 9 30 1016 10 16.0934 0 0
2:56 pm 14:56 Mostly Cloudy 82 27.8 65 18.3 56 56 SE 13 20 29.98 1015 10 16.0934 0 0
3:56 pm 15:56 Cloudy 82 27.8 65 18.3 56 56 S 10 17 29.97 1015 10 16.0934 0 0
4:56 pm 16:56 Cloudy 81 27.2 65 18.3 58 58 SSE 8 13 29.96 1015 10 16.0934 0 0
5:56 pm 17:56 Mostly Cloudy 81 27.2 66 18.9 61 61 S 8 13 29.96 1015 10 16.0934 0 0
6:56 pm 18:56 Cloudy 80 26.7 65 18.3 60 60 SSE 10 17 29.96 1015 10 16.0934 0 0
7:56 pm 19:56 Cloudy 78 25.6 65 18.3 64 64 S 7 11 29.97 1015 10 16.0934 0 0
8:56 pm 20:56 Cloudy 75 23.9 69 20.6 82 82 SW 3 6 29.98 1015 10 16.0934 0 0
9:56 pm 21:56 Cloudy 74 23.3 69 20.6 85 85 Calm 29.98 1015 10 16.0934 0 0
10:56 pm 22:56 Cloudy 74 23.3 68 20 82 82 S 3 6 29.98 1015 10 16.0934 0 0
11:56 pm 23:56 Clear 71 21.7 69 20.6 94 94 ESE 3 6 29.97 1015 10 16.0934 0 0

Powered by AerisWeather